Evanston, WY

6:33 PM MDT on March 24, 2017 (GMT -0600)
Evanston-Uinta County Burns

Weather History for KEVW - November, 2011

Change the Weather History Date:

Thursday, November 24, 2011

  Actual Average Record
Temperature  
Mean Temperature 37 °F 26 °F  
Max Temperature 45 °F 34 °F 52 °F (2012)
Min Temperature 28 °F 18 °F -8 °F (2010)
Degree Days  
Heating Degree Days 28 39  
Month to date heating degree days 885 814  
Since 1 July heating degree days 1693 1867  
Cooling Degree Days 0 0  
Month to date cooling degree days 0 0  
Year to date cooling degree days 166 162  
Moisture  
Dew Point 19 °F    
Average Humidity 50    
Maximum Humidity 58    
Minimum Humidity 41    
Precipitation  
Precipitation 0.00 in 0.03 in 0.22 in (2001)
Month to date precipitation 0.52 0.92  
Year to date precipitation 7.53 11.43  
Sea Level Pressure  
Sea Level Pressure 29.90 in    
Wind  
Wind Speed 7 mph (SW)    
Max Wind Speed 16 mph    
Max Gust Speed 20 mph    
Visibility 10 miles    
Events      
T = Trace of Precipitation, MM = Missing Value Source: NWS Daily Summary

Daily Weather History Graph

Daily Weather History Graph

Search for Another Location

Airport or City:

Trip Planner

Search our weather history database for the weather conditions in past years. The results will help you decide how hot, cold, wet, or windy it might be!

Date:

Astronomy

Nov. 24, 2011 Rise Set
Actual Time 7:22 AM MST 4:58 PM MST
Civil Twilight 6:52 AM MST 5:28 PM MST
Nautical Twilight 6:18 AM MST 6:02 PM MST
Astronomical Twilight 5:45 AM MST 6:35 PM MST
Moon 6:45 AM MST (11/24) 4:32 PM MST (11/24)
Length of Visible Light 10h 36m
Length of Day
9h 36m
Waning Crescent, 0% of the Moon is Illuminated
Nov 24
Waning Crescent
Nov 24
New
Dec 2
First Quarter
Dec 10
Full
Dec 17
Last Quarter

Hourly Weather History & Observations

Time (MST) Temp. Windchill Dew Point Humidity Pressure Visibility Wind Dir Wind Speed Gust Speed Precip Events Conditions
12:53 AM 35.1 °F 29.3 °F 19.0 °F 52% 29.93 in 10.0 mi South 6.9 mph - N/A   Clear
1:53 AM 34.0 °F 28.0 °F 19.0 °F 54% 29.92 in 10.0 mi South 6.9 mph - N/A   Clear
2:53 AM 36.0 °F 33.3 °F 18.0 °F 48% 29.89 in 10.0 mi SW 3.5 mph - N/A   Clear
3:53 AM 35.1 °F 30.1 °F 17.1 °F 48% 29.88 in 10.0 mi SSW 5.8 mph - N/A   Clear
4:53 AM 30.9 °F - 16.0 °F 54% 29.91 in 10.0 mi Calm Calm - N/A   Clear
5:53 AM 36.0 °F - 16.0 °F 44% 29.89 in 10.0 mi Calm Calm - N/A   Clear
6:53 AM 35.1 °F - 15.1 °F 44% 29.90 in 10.0 mi Calm Calm - N/A   Clear
7:53 AM 37.0 °F 33.3 °F 16.0 °F 42% 29.90 in 10.0 mi South 4.6 mph - N/A   Clear
8:53 AM 37.9 °F 35.5 °F 18.0 °F 45% 29.91 in 10.0 mi SW 3.5 mph - N/A   Clear
9:53 AM 37.9 °F - 19.9 °F 48% 29.92 in 10.0 mi Calm Calm - N/A   Clear
10:53 AM 41.0 °F 34.7 °F 19.9 °F 43% 29.93 in 10.0 mi SW 10.4 mph - N/A   Clear
11:53 AM 43.0 °F 38.2 °F 19.9 °F 40% 29.89 in 10.0 mi SW 8.1 mph - N/A   Clear
12:53 PM 44.1 °F 38.6 °F 23.0 °F 43% 29.86 in 10.0 mi SW 10.4 mph - N/A   Clear
1:53 PM 43.0 °F 36.4 °F 25.0 °F 49% 29.86 in 10.0 mi SW 12.7 mph - N/A   Clear
2:53 PM 42.1 °F 36.6 °F 25.0 °F 51% 29.86 in 10.0 mi SW 9.2 mph - N/A   Clear
3:53 PM 41.0 °F 33.5 °F 24.1 °F 51% 29.86 in 10.0 mi SW 13.8 mph - N/A   Clear
4:53 PM 37.9 °F 32.1 °F - N/A% 29.90 in 10.0 mi SW 8.1 mph - N/A   Clear
5:53 PM 37.9 °F 30.5 °F - N/A% 29.89 in 10.0 mi SW 11.5 mph - N/A   Clear
6:53 PM 32.0 °F 24.2 °F - N/A% 29.94 in 10.0 mi WSW 9.2 mph - N/A   Clear
7:53 PM 34.0 °F 28.8 °F - N/A% 29.92 in 10.0 mi SW 5.8 mph - N/A   Clear
8:53 PM 30.0 °F 21.1 °F - N/A% 29.94 in 10.0 mi WSW 10.4 mph - N/A   Clear
9:53 PM 30.0 °F 21.7 °F - N/A% 29.94 in 10.0 mi SW 9.2 mph - N/A   Clear
10:53 PM 30.0 °F 23.2 °F - N/A% 29.92 in 10.0 mi WSW 6.9 mph - N/A   Clear
11:53 PM 30.0 °F 21.1 °F - N/A% 29.91 in 10.0 mi SW 10.4 mph - N/A   Partly Cloudy